C/2017 K4 ( ATLAS )

Japanese version
Home page
Updated on June 2, 2017

---------------------------------------------------------------------

* Profile

Discovery Date May 26, 2017
Magnitude 17.0 mag
Discoverer Asteroid Terrestrial-impact Last Alert System (ATLAS) Team

* Orbital Elements

T 2018 Jan. 13.32712 TT                                 MPCW
q   2.5405948            (2000.0)            P               Q
                   Peri.   20.42418     +0.73020732     +0.63107741
                   Node   297.65051     -0.66068975     +0.55462310
e   1.0            Incl.   17.19066     -0.17402968     +0.54234170
From 105 observations 2017 May 26-June 1.

* Finding Charts

* Magnitudes Graph

        m1 = 9.0 + 5 log d + 10.0 log r

---------------------------------------------------------------------

The orbital elements are published on M.P.E.C. 2017-L04.
The charts are made with StellaNavigator Ver.10 (AstroArts).
The magnitudes graphs are made with Comet for Windows.

---------------------------------------------------------------------

Copyright(C) Seiichi Yoshida (comet@aerith.net). All rights reserved.